H1 CPF 2 NER 2025 12 14 9 348 01 glonass146 H2 2216101 9146 54377 2025 12 14 0 0 0 2025 12 17 23 45 0 900 1 1 0 0 0 1 H9 10 0 61023 0.00000 0 -9944278.307 -4454646.865 23066367.662 10 0 61023 900.00000 0 -8795236.370 -7046377.383 22883191.364 10 0 61023 1800.00000 0 -7855689.353 -9668668.794 22255616.601 10 0 61023 2700.00000 0 -7139346.307 -12253308.030 21195682.766 10 0 61023 3600.00000 0 -6647548.891 -14731627.289 19723837.899 10 0 61023 4500.00000 0 -6369363.069 -17037167.370 17868553.516 10 0 61023 5400.00000 0 -6282201.768 -19108264.188 15665782.013 10 0 61023 6300.00000 0 -6352952.591 -20890450.670 13158266.104 10 0 61023 7200.00000 0 -6539563.170 -22338573.456 10394712.881 10 0 61023 8100.00000 0 -6793017.143 -23418535.333 7428847.986 10 0 61023 9000.00000 0 -7059616.834 -24108589.801 4318368.106 10 0 61023 9900.00000 0 -7283475.276 -24400132.846 1123812.496 10 0 61023 10800.00000 0 -7409110.992 -24297958.250 -2092623.893 10 0 61023 11700.00000 0 -7384034.228 -23819965.573 -5268311.561 10 0 61023 12600.00000 0 -7161213.521 -22996333.331 -8341416.877 10 0 61023 13500.00000 0 -6701316.539 -21868192.801 -11252116.501 10 0 61023 14400.00000 0 -5974628.807 -20485859.177 -13943770.978 10 0 61023 15300.00000 0 -4962567.790 -18906695.698 -16364033.570 10 0 61023 16200.00000 0 -3658727.290 -17192701.798 -18465872.092 10 0 61023 17100.00000 0 -2069407.250 -15407927.750 -20208483.550 10 0 61023 18000.00000 0 -213606.065 -13615825.273 -21558083.854 10 0 61023 18900.00000 0 1877524.672 -11876645.741 -22488557.748 10 0 61023 19800.00000 0 4161740.376 -10244995.040 -22981957.067 10 0 61023 20700.00000 0 6587234.459 -8767647.047 -23028838.621 10 0 61023 21600.00000 0 9094576.362 -7481706.262 -22628436.137 10 0 61023 22500.00000 0 11618976.107 -6413195.121 -21788663.975 10 0 61023 23400.00000 0 14092781.396 -5576123.452 -20525953.359 10 0 61023 24300.00000 0 16448103.906 -4972077.197 -18864925.009 10 0 61023 25200.00000 0 18619466.199 -4590341.763 -16837904.957 10 0 61023 26100.00000 0 20546359.900 -4408553.107 -14484293.151 10 0 61023 27000.00000 0 22175609.625 -4393847.688 -11849797.149 10 0 61023 27900.00000 0 23463445.168 -4504461.706 -8985545.590 10 0 61023 28800.00000 0 24377196.571 -4691711.430 -5947098.455 10 0 61023 29700.00000 0 24896542.302 -4902270.575 -2793373.003 10 0 61023 30600.00000 0 25014259.317 -5080648.391 414494.106 10 0 61023 31500.00000 0 24736444.401 -5171763.785 3614326.709 10 0 61023 32400.00000 0 24082198.109 -5123506.836 6744108.523 10 0 61023 33300.00000 0 23082784.941 -4889179.624 9743179.096 10 0 61023 34200.00000 0 21780305.068 -4429713.304 12553403.458 10 0 61023 35100.00000 0 20225933.156 -3715567.764 15120293.254 10 0 61023 36000.00000 0 18477797.701 -2728233.303 17394058.061 10 0 61023 36900.00000 0 16598589.124 -1461270.395 19330566.993 10 0 61023 37800.00000 0 14652995.994 79157.317 20892202.428 10 0 61023 38700.00000 0 12705075.761 1874280.678 22048589.762 10 0 61023 39600.00000 0 10815669.072 3893255.187 22777189.270 10 0 61023 40500.00000 0 9039964.891 6094203.568 23063738.747 10 0 61023 41400.00000 0 7425317.423 8425729.329 22902538.162 10 0 61023 42300.00000 0 6009405.547 10828840.238 22296570.388 10 0 61023 43200.00000 0 4818811.318 13239203.464 21257454.952 10 0 61023 44100.00000 0 3868076.830 15589640.006 19805234.755 10 0 61023 45000.00000 0 3159278.935 17812755.586 17967998.820 10 0 61023 45900.00000 0 2682139.707 19843599.020 15781347.226 10 0 61023 46800.00000 0 2414668.065 21622237.323 13287707.543 10 0 61023 47700.00000 0 2324305.547 23096139.681 10535515.195 10 0 61023 48600.00000 0 2369527.727 24222269.960 7578273.092 10 0 61023 49500.00000 0 2501833.179 24968799.297 4473508.660 10 0 61023 50400.00000 0 2668035.155 25316366.006 1281648.803 10 0 61023 51300.00000 0 2812757.898 25258829.147 -1935164.650 10 0 61023 52200.00000 0 2881030.526 24803483.517 -5114294.987 10 0 61023 53100.00000 0 2820867.042 23970726.824 -8193841.145 10 0 61023 54000.00000 0 2585721.568 22793193.232 -11113853.493 10 0 61023 54900.00000 0 2136713.227 21314390.251 -13817509.987 10 0 61023 55800.00000 0 1444525.098 19586897.153 -16252228.715 10 0 61023 56700.00000 0 490895.753 17670201.616 -18370694.495 10 0 61023 57600.00000 0 -730360.513 15628266.454 -20131779.228 10 0 61023 58500.00000 0 -2212848.445 13526929.359 -21501338.125 10 0 61023 59400.00000 0 -3937623.244 11431245.200 -22452866.801 10 0 61023 60300.00000 0 -5873757.609 9402882.254 -22968007.215 10 0 61023 61200.00000 0 -7979420.761 7497680.970 -23036893.543 10 0 61023 62100.00000 0 -10203424.459 5763476.459 -22658332.346 10 0 61023 63000.00000 0 -12487171.584 4238274.399 -21839814.497 10 0 61023 63900.00000 0 -14766926.268 2948854.929 -20597359.550 10 0 61023 64800.00000 0 -16976311.279 1909860.963 -18955196.257 10 0 61023 65700.00000 0 -19048929.164 1123407.012 -16945285.868 10 0 61023 66600.00000 0 -20920998.516 579222.912 -14606697.721 10 0 61023 67500.00000 0 -22533896.259 255324.551 -11984849.245 10 0 61023 68400.00000 0 -23836500.723 119181.842 -9130624.990 10 0 61023 69300.00000 0 -24787238.522 129333.532 -6099391.555 10 0 61023 70200.00000 0 -25355750.532 237379.939 -2949927.205 10 0 61023 71100.00000 0 -25524108.051 390268.987 256713.355 10 0 61023 72000.00000 0 -25287528.827 532778.795 3458377.335 10 0 61023 72900.00000 0 -24654563.427 610091.890 6593012.823 10 0 61023 73800.00000 0 -23646744.370 570352.379 9599865.437 10 0 61023 74700.00000 0 -22297712.750 367098.153 12420649.795 10 0 61023 75600.00000 0 -20651858.679 -38534.583 15000673.523 10 0 61023 76500.00000 0 -18762531.999 -675927.624 17289892.482 10 0 61023 77400.00000 0 -16689897.471 -1563497.789 19243877.193 10 0 61023 78300.00000 0 -14498523.212 -2707677.863 20824672.262 10 0 61023 79200.00000 0 -12254802.173 -4102405.467 22001532.561 10 0 61023 80100.00000 0 -10024313.267 -5729142.823 22751522.157 10 0 61023 81000.00000 0 -7869231.227 -7557428.416 23059964.518 10 0 61023 81900.00000 0 -5845892.314 -9545939.476 22920735.117 10 0 61023 82800.00000 0 -4002616.658 -11644022.942 22336390.322 10 0 61023 83700.00000 0 -2377877.476 -13793632.962 21318129.392 10 0 61023 84600.00000 0 -998893.239 -15931595.760 19885589.361 10 0 61023 85500.00000 0 119298.595 -17992108.700 18066475.720 10 0 61024 0.00000 0 974247.557 -19909369.884 15896035.102 10 0 61024 900.00000 0 1575959.322 -21620229.795 13416377.913 10 0 61024 1800.00000 0 1946232.583 -23066751.384 10675666.184 10 0 61024 2700.00000 0 2117493.323 -24198574.255 7727177.965 10 0 61024 3600.00000 0 2131174.952 -24974980.338 4628269.079 10 0 61024 4500.00000 0 2035713.943 -25366574.321 1439251.583 10 0 61024 5400.00000 0 1884246.707 -25356507.008 -1777788.436 10 0 61024 6300.00000 0 1732106.489 -24941189.222 -4960209.763 10 0 61024 7200.00000 0 1634227.815 -24130465.585 -8046046.688 10 0 61024 8100.00000 0 1642570.058 -22947240.580 -10975226.114 10 0 61024 9000.00000 0 1803670.855 -21426572.725 -13690746.240 10 0 61024 9900.00000 0 2156434.410 -19614275.390 -16139792.761 10 0 61024 10800.00000 0 2730249.499 -17565083.750 -18274770.153 10 0 61024 11700.00000 0 3543517.645 -15340465.591 -20054227.647 10 0 61024 12600.00000 0 4602654.259 -13006168.518 -21443661.893 10 0 61024 13500.00000 0 5901605.208 -10629606.847 -22416181.147 10 0 61024 14400.00000 0 7421899.360 -8277197.644 -22953018.834 10 0 61024 15300.00000 0 9133234.952 -6011757.048 -23043887.414 10 0 61024 16200.00000 0 10994575.200 -3890064.900 -22687166.747 10 0 61024 17100.00000 0 12955707.343 -1960698.118 -21889924.274 10 0 61024 18000.00000 0 14959200.007 -262221.705 -20667767.537 10 0 61024 18900.00000 0 16942677.346 1178189.009 -19044532.583 10 0 61024 19800.00000 0 18841315.362 2345639.417 -17051814.760 10 0 61024 20700.00000 0 20590456.618 3237884.861 -14728351.259 10 0 61024 21600.00000 0 22128234.757 3865164.637 -12119267.440 10 0 61024 22500.00000 0 23398099.832 4249509.632 -9275201.402 10 0 61024 23400.00000 0 24351139.543 4423554.268 -6251323.601 10 0 61024 24300.00000 0 24948099.941 4428903.982 -3106270.231 10 0 61024 25200.00000 0 25161021.621 4314127.912 98989.276 10 0 61024 26100.00000 0 24974423.309 4132461.988 3302328.948 10 0 61024 27000.00000 0 24385983.575 3939319.634 6441664.688 10 0 61024 27900.00000 0 23406692.201 3789715.219 9456151.518 10 0 61024 28800.00000 0 22060464.729 3735708.996 12287356.770 10 0 61024 29700.00000 0 20383235.959 3823981.304 14880386.911 10 0 61024 30600.00000 0 18421569.726 4093638.380 17184946.623 10 0 61024 31500.00000 0 16230842.278 4574342.474 19156310.045 10 0 61024 32400.00000 0 13873074.137 5284845.505 20756185.879 10 0 61024 33300.00000 0 11414499.782 6231988.696 21953459.990 10 0 61024 34200.00000 0 8922975.346 7410211.405 22724801.395 10 0 61024 35100.00000 0 6465331.134 8801591.211 23055120.015 10 0 61024 36000.00000 0 4104778.131 10376415.330 22937867.196 10 0 61024 36900.00000 0 1898475.563 12094261.329 22375172.735 10 0 61024 37800.00000 0 -104639.933 13905543.817 21377815.101 10 0 61024 38700.00000 0 -1865673.648 15753464.209 19965024.482 10 0 61024 39600.00000 0 -3357165.058 17576283.490 18164121.415 10 0 61024 40500.00000 0 -4563995.086 19309823.945 16009996.849 10 0 61024 41400.00000 0 -5483770.549 20890095.748 13544442.642 10 0 61024 42300.00000 0 -6126669.809 22255938.367 10815344.630 10 0 61024 43200.00000 0 -6514756.376 23351565.587 7875753.325 10 0 61024 44100.00000 0 -6680789.834 24128906.458 4782850.097 10 0 61024 45000.00000 0 -6666584.881 24549642.635 1596829.184 10 0 61024 45900.00000 0 -6520988.831 24586855.179 -1620282.106 10 0 61024 46800.00000 0 -6297564.307 24226210.306 -4805841.104 10 0 61024 47700.00000 0 -6052076.689 23466633.133 -7897820.433 10 0 61024 48600.00000 0 -5839894.295 22320440.368 -10836026.384 10 0 61024 49500.00000 0 -5713412.987 20812926.003 -13563280.050 10 0 61024 50400.00000 0 -5719615.720 18981417.463 -16026537.128 10 0 61024 51300.00000 0 -5897871.556 16873842.190 -18177923.876 10 0 61024 52200.00000 0 -6278068.178 14546865.323 -19975668.695 10 0 61024 53100.00000 0 -6879157.390 12063677.113 -21384911.213 10 0 61024 54000.00000 0 -7708175.311 9491523.174 -22378373.580 10 0 61024 54900.00000 0 -8759778.582 6899081.005 -22936881.626 10 0 61024 55800.00000 0 -10016316.010 4353792.268 -23049726.708 10 0 61024 56700.00000 0 -11448432.431 1919261.533 -22714862.218 10 0 61024 57600.00000 0 -13016179.275 -347171.018 -21938931.999 10 0 61024 58500.00000 0 -14670585.176 -2396583.179 -20737130.971 10 0 61024 59400.00000 0 -16355620.838 -4190262.540 -19132901.420 10 0 61024 60300.00000 0 -18010476.094 -5701063.858 -17157471.308 10 0 61024 61200.00000 0 -19572054.134 -6914277.406 -14849243.825 10 0 61024 62100.00000 0 -20977578.972 -7827974.166 -12253050.086 10 0 61024 63000.00000 0 -22167207.482 -8452815.463 -9419279.333 10 0 61024 63900.00000 0 -23086537.182 -8811336.806 -6402903.305 10 0 61024 64800.00000 0 -23688905.226 -8936737.560 -3262413.434 10 0 61024 65700.00000 0 -23937382.695 -8871228.517 -58691.107 10 0 61024 66600.00000 0 -23806380.948 -8664007.784 3146167.343 10 0 61024 67500.00000 0 -23282802.815 -8368950.791 6290048.482 10 0 61024 68400.00000 0 -22366690.381 -8042112.092 9312019.582 10 0 61024 69300.00000 0 -21071341.945 -7739144.327 12153503.495 10 0 61024 70200.00000 0 -19422892.758 -7512743.176 14759408.223 10 0 61024 71100.00000 0 -17459376.368 -7410225.910 17079189.782 10 0 61024 72000.00000 0 -15229304.834 -7471345.584 19067828.191 10 0 61024 72900.00000 0 -12789825.960 -7726433.071 20686698.177 10 0 61024 73800.00000 0 -10204533.091 -8194945.526 21904318.148 10 0 61024 74700.00000 0 -7541017.401 -8884483.029 22696963.213 10 0 61024 75600.00000 0 -4868263.180 -9790315.744 23049130.473 10 0 61024 76500.00000 0 -2253993.196 -10895442.802 22953847.470 10 0 61024 77400.00000 0 237926.563 -12171182.005 22412817.381 10 0 61024 78300.00000 0 2549915.765 -13578267.335 21436397.505 10 0 61024 79200.00000 0 4632841.839 -15068409.959 20043410.489 10 0 61024 80100.00000 0 6447825.699 -16586258.800 18260790.926 10 0 61024 81000.00000 0 7967616.049 -18071679.670 16123073.010 10 0 61024 81900.00000 0 9177475.012 -19462258.122 13671728.080 10 0 61024 82800.00000 0 10075538.123 -20695921.200 10954364.066 10 0 61024 83700.00000 0 10672633.764 -21713567.669 8023801.766 10 0 61024 84600.00000 0 10991569.992 -22461595.417 4937045.659 10 0 61024 85500.00000 0 11065919.349 -22894218.531 1754169.508 10 0 61025 0.00000 0 10938353.793 -22975475.159 -1462860.683 10 0 61025 900.00000 0 10658601.107 -22680840.141 -4651404.268 10 0 61025 1800.00000 0 10281110.786 -21998373.119 -7749374.850 10 0 61025 2700.00000 0 9862529.462 -20929352.809 -10696461.015 10 0 61025 3600.00000 0 9459094.411 -19488369.774 -13435309.591 10 0 61025 4500.00000 0 9124056.921 -17702873.510 -15912649.006 10 0 61025 5400.00000 0 8905245.820 -15612192.787 -18080329.850 10 0 61025 6300.00000 0 8842875.143 -13266070.535 -19896261.997 10 0 61025 7200.00000 0 8967689.197 -10722775.072 -21325230.057 10 0 61025 8100.00000 0 9299523.547 -8046867.022 -22339571.698 10 0 61025 9000.00000 0 9846342.536 -5306715.461 -22919706.382 10 0 61025 9900.00000 0 10603793.560 -2571866.926 -23054505.144 10 0 61025 10800.00000 0 11555296.393 89623.433 -22741495.283 10 0 61025 11700.00000 0 12672663.330 2613788.202 -21986896.996 10 0 61025 12600.00000 0 13917223.663 4943164.560 -20805492.153 10 0 61025 13500.00000 0 15241405.011 7028932.602 -19220328.492 10 0 61025 14400.00000 0 16590705.031 8832687.847 -17262265.448 10 0 61025 15300.00000 0 17905970.852 10327776.058 -14969370.713 10 0 61025 16200.00000 0 19125890.857 11500136.721 -12386179.317 10 0 61025 17100.00000 0 20189594.612 12348622.022 -9562829.437 10 0 61025 18000.00000 0 21039252.284 12884779.829 -6554091.574 10 0 61025 18900.00000 0 21622564.851 13132111.472 -3418309.584 10 0 61025 19800.00000 0 21895040.984 13124836.878 -216273.792 10 0 61025 20700.00000 0 21821965.257 12906219.974 2989952.243 10 0 61025 21600.00000 0 21379975.185 12526525.603 6138228.903 10 0 61025 22500.00000 0 20558180.808 12040694.340 9167538.790 10 0 61025 23400.00000 0 19358779.545 11505833.353 12019163.196 10 0 61025 24300.00000 0 17797139.936 10978628.946 14637814.369 10 0 61025 25200.00000 0 15901349.941 10512789.654 16972702.136 10 0 61025 26100.00000 0 13711247.575 10156627.380 18978514.608 10 0 61025 27000.00000 0 11276973.077 9950878.290 20616294.483 10 0 61025 27900.00000 0 8657101.511 9926855.191 21854194.383 10 0 61025 28800.00000 0 5916432.067 10105009.374 22668096.865 10 0 61025 29700.00000 0 3123524.491 10493962.914 23042087.234 10 0 61025 30600.00000 0 348083.578 11090052.958 22968769.873 10 0 61025 31500.00000 0 -2341700.863 11877408.275 22449421.567 10 0 61025 32400.00000 0 -4881749.136 12828556.198 21493978.197 10 0 61025 33300.00000 0 -7214514.839 13905535.916 20120854.154 10 0 61025 34200.00000 0 -9291135.811 15061472.762 18356596.894 10 0 61025 35100.00000 0 -11073223.579 16242548.542 16235382.213 10 0 61025 36000.00000 0 -12534216.778 17390285.985 13798358.915 10 0 61025 36900.00000 0 -13660241.989 18444051.621 11092854.699 10 0 61025 37800.00000 0 -14450446.007 19343671.662 8171458.091 10 0 61025 38700.00000 0 -14916785.767 20032050.182 5090993.955 10 0 61025 39600.00000 0 -15083285.097 20457678.152 1911412.759 10 0 61025 40500.00000 0 -14984790.294 20576926.269 -1305384.268 10 0 61025 41400.00000 0 -14665277.931 20356023.311 -4496760.261 10 0 61025 42300.00000 0 -14175787.617 19772635.077 -7600573.284 10 0 61025 43200.00000 0 -13572068.491 18816975.939 -10556397.056 10 0 61025 44100.00000 0 -12912040.508 17492405.064 -13306706.855 10 0 61025 45000.00000 0 -12253179.374 15815481.390 -15798006.369 10 0 61025 45900.00000 0 -11649936.981 13815474.636 -17981872.809 10 0 61025 46800.00000 0 -11151307.408 11533352.696 -19815899.542 10 0 61025 47700.00000 0 -10798641.878 9020287.968 -21264517.879 10 0 61025 48600.00000 0 -10623805.141 6335745.298 -22299682.415 10 0 61025 49500.00000 0 -10647750.821 3545231.543 -22901407.318 10 0 61025 50400.00000 0 -10879575.276 717800.695 -23058144.039 10 0 61025 51300.00000 0 -11316089.062 -2076581.778 -22766994.136 10 0 61025 52200.00000 0 -11941923.223 -4769706.240 -22033754.121 10 0 61025 53100.00000 0 -12730165.126 -7297707.757 -20872792.361 10 0 61025 54000.00000 0 -13643496.407 -9603470.134 -19306761.168 10 0 61025 54900.00000 0 -14635784.726 -11638746.670 -17366150.168 10 0 61025 55800.00000 0 -15654062.146 -13365911.058 -15088689.917 10 0 61025 56700.00000 0 -16640806.908 -14759267.406 -12518617.398 10 0 61025 57600.00000 0 -17536432.861 -15805866.638 -9705817.546 10 0 61025 58500.00000 0 -18281882.097 -16505796.989 -6704857.246 10 0 61025 59400.00000 0 -18821212.130 -16871938.156 -3573930.281 10 0 61025 60300.00000 0 -19104069.121 -16929190.861 -373733.316 10 0 61025 61200.00000 0 -19087943.382 -16713215.323 2833705.538 10 0 61025 62100.00000 0 -18740112.443 -16268732.505 5986223.217 10 0 61025 63000.00000 0 -18039189.915 -15647460.105 9022720.435 10 0 61025 63900.00000 0 -16976214.758 -14905770.372 11884339.700 10 0 61025 64800.00000 0 -15555234.654 -14102168.327 14515600.245 10 0 61025 65700.00000 0 -13793358.148 -13294696.300 16865468.316 10 0 61025 66600.00000 0 -11720272.187 -12538373.718 18888342.532 10 0 61025 67500.00000 0 -9377243.821 -11882779.482 20544935.707 10 0 61025 68400.00000 0 -6815646.120 -11369878.343 21803036.488 10 0 61025 69300.00000 0 -4095067.987 -11032182.517 22638136.331 10 0 61025 70200.00000 0 -1281084.816 -10891325.897 23033909.806 10 0 61025 71100.00000 0 1557219.061 -10957111.123 22982538.816 10 0 61025 72000.00000 0 4349874.670 -11227070.213 22484874.067 10 0 61025 72900.00000 0 7028691.735 -11686558.079 21550429.997 10 0 61025 73800.00000 0 9529851.397 -12309376.083 20197212.376 10 0 61025 74700.00000 0 11796321.159 -13058900.546 18451380.841 10 0 61025 75600.00000 0 13779991.905 -13889669.779 16346751.782 10 0 61025 76500.00000 0 15443448.048 -14749363.679 13924150.095 10 0 61025 77400.00000 0 16761296.780 -15581092.982 11230621.515 10 0 61025 78300.00000 0 17721000.744 -16325901.730 8318520.168 10 0 61025 79200.00000 0 18323179.129 -16925376.970 5244488.821 10 0 61025 80100.00000 0 18581364.679 -17324254.640 2068351.825 10 0 61025 81000.00000 0 18521227.206 -17472910.373 -1148057.131 10 0 61025 81900.00000 0 18179297.006 -17329628.505 -4342108.758 10 0 61025 82800.00000 0 17601243.025 -16862551.839 -7451608.541 10 0 61025 83700.00000 0 16839779.717 -16051228.293 -10416018.544 10 0 61025 84600.00000 0 15952292.425 -14887687.798 -13177645.576 10 0 61025 85500.00000 0 14998283.035 -13377002.940 -15682771.484 10 0 61026 0.00000 0 14036745.212 -11537309.147 -17882702.579 10 0 61026 900.00000 0 13123580.597 -9399282.054 -19734718.496 10 0 61026 1800.00000 0 12309166.979 -7005096.286 -21202899.081 10 0 61026 2700.00000 0 11636179.524 -4406905.972 -22258817.530 10 0 61026 3600.00000 0 11137757.980 -1664912.881 -22882083.983 10 0 61026 4500.00000 0 10836095.927 1154898.128 -23060731.136 10 0 61026 5400.00000 0 10741510.586 3983262.016 -22791435.209 10 0 61026 6300.00000 0 10852031.221 6750271.100 -22079569.007 10 0 61026 7200.00000 0 11153522.250 9388038.185 -20939086.969 10 0 61026 8100.00000 0 11620334.753 11833275.580 -19392245.172 10 0 61026 9000.00000 0 12216458.029 14029684.043 -17469162.268 10 0 61026 9900.00000 0 12897122.036 15930053.740 -15207230.151 10 0 61026 10800.00000 0 13610782.834 17497991.397 -12650385.901 10 0 61026 11700.00000 0 14301407.254 18709203.395 -9848259.001 10 0 61026 12600.00000 0 14910960.613 19552282.919 -6855210.220 10 0 61026 13500.00000 0 15381992.855 20028969.887 -3729280.482 10 0 61026 14400.00000 0 15660214.441 20153874.213 -531069.816 10 0 61026 15300.00000 0 15696953.675 19953675.167 2677432.212 10 0 61026 16200.00000 0 15451392.130 19465831.365 5834042.215 10 0 61026 17100.00000 0 14892484.032 18736856.141 8877582.067 10 0 61026 18000.00000 0 14000478.593 17820231.086 11749058.408 10 0 61026 18900.00000 0 12767980.790 16774045.466 14392800.171 10 0 61026 19800.00000 0 11200505.174 15658460.528 16757532.509 10 0 61026 20700.00000 0 9316498.398 14533104.902 18797366.789 10 0 61026 21600.00000 0 7146828.006 13454510.023 20472687.921 10 0 61026 22500.00000 0 4733757.196 12473692.831 21750922.287 10 0 61026 23400.00000 0 2129446.432 11633986.799 22607171.649 10 0 61026 24300.00000 0 -605957.571 10969212.093 23024700.920 10 0 61026 25200.00000 0 -3406567.931 10502261.578 22995270.226 10 0 61026 26100.00000 0 -6203247.075 10244162.231 22519304.470 10 0 61026 27000.00000 0 -8926237.701 10193651.788 21605896.463 10 0 61026 27900.00000 0 -11507827.091 10337289.048 20272642.686 10 0 61026 28800.00000 0 -13884934.799 10650093.940 18545313.791 10 0 61026 29700.00000 0 -16001516.518 11096691.228 16457365.124 10 0 61026 30600.00000 0 -17810684.075 11632910.335 14049295.639 10 0 61026 31500.00000 0 -19276452.943 12207774.312 11367866.729 10 0 61026 32400.00000 0 -20375043.925 12765794.112 8465195.511 10 0 61026 33300.00000 0 -21095684.230 13249470.968 5397739.880 10 0 61026 34200.00000 0 -21440874.082 13601900.400 2225195.222 10 0 61026 35100.00000 0 -21426107.746 13769366.599 -990675.201 10 0 61026 36000.00000 0 -21079061.021 13703816.026 -4187252.551 10 0 61026 36900.00000 0 -20438280.134 13365104.022 -7302292.597 10 0 61026 37800.00000 0 -19551428.307 12722917.787 -10275148.538 10 0 61026 38700.00000 0 -18473165.210 11758292.945 -13047961.410 10 0 61026 39600.00000 0 -17262750.124 10464658.377 -15566793.745 10 0 61026 40500.00000 0 -15981471.240 8848364.235 -17782683.626 10 0 61026 41400.00000 0 -14690010.613 6928670.163 -19652598.189 10 0 61026 42300.00000 0 -13445856.615 4737193.789 -21140267.925 10 0 61026 43200.00000 0 -12300873.214 2316842.329 -22216885.957 10 0 61026 44100.00000 0 -11299128.256 -279728.099 -22861659.336 10 0 61026 45000.00000 0 -10475071.486 -2992061.195 -23062202.554 10 0 61026 45900.00000 0 -9852137.906 -5754176.133 -22814766.650 10 0 61026 46800.00000 0 -9441833.832 -8497075.719 -22124300.486 10 0 61026 47700.00000 0 -9243342.584 -11151383.197 -21004343.953 10 0 61026 48600.00000 0 -9243664.860 -13649998.831 -19476755.912 10 0 61026 49500.00000 0 -9418286.471 -15930666.822 -17571282.725 10 0 61026 50400.00000 0 -9732344.164 -17938346.980 -15324976.023 10 0 61026 51300.00000 0 -10142239.526 -19627293.821 -12781471.142 10 0 61026 52200.00000 0 -10597632.395 -20962757.962 -9990140.112 10 0 61026 53100.00000 0 -11043729.453 -21922240.290 -7005135.455 10 0 61026 54000.00000 0 -11423771.408 -22496247.977 -3884343.045 10 0 61026 54900.00000 0 -11681613.975 -22688522.042 -688264.015 10 0 61026 55800.00000 0 -11764293.925 -22515727.998 2521152.920 10 0 61026 56700.00000 0 -11624472.144 -22006623.469 5681706.412 10 0 61026 57600.00000 0 -11222650.718 -21200738.253 8732141.915 10 0 61026 58500.00000 0 -10529070.507 -20146622.562 11613332.672 10 0 61026 59400.00000 0 -9525208.928 -18899736.995 14269419.790 10 0 61026 60300.00000 0 -8204814.241 -17520072.598 16648889.771 10 0 61026 61200.00000 0 -6574431.918 -16069600.474 18705569.064 10 0 61026 62100.00000 0 -4653399.630 -14609657.376 20399516.842 10 0 61026 63000.00000 0 -2473309.381 -13198376.253 21697799.145 10 0 61026 63900.00000 0 -76957.406 -11888268.859 22575129.691 10 0 61026 64800.00000 0 2483176.454 -10724061.171 23014365.061 10 0 61026 65700.00000 0 5146858.568 -9740871.919 23006844.609 10 0 61026 66600.00000 0 7848362.201 -8962810.384 22552568.103 10 0 61026 67500.00000 0 10518966.738 -8402052.260 21660207.069 10 0 61026 68400.00000 0 13089592.979 -8058432.585 20346948.710 10 0 61026 69300.00000 0 15493465.839 -7919573.210 18638174.378 10 0 61026 70200.00000 0 17668694.261 -7961539.916 16566977.720 10 0 61026 71100.00000 0 19560660.982 -8150001.933 14173530.709 10 0 61026 72000.00000 0 21124122.274 -8441845.303 11504308.966 10 0 61026 72900.00000 0 22324929.486 -8787172.038 8611190.744 10 0 61026 73800.00000 0 23141299.809 -9131600.342 5550446.787 10 0 61026 74700.00000 0 23564582.470 -9418767.961 2381640.837 10 0 61026 75600.00000 0 23599487.877 -9592931.697 -833537.276 10 0 61026 76500.00000 0 23263770.026 -9601551.724 -4032482.410 10 0 61026 77400.00000 0 22587375.849 -9397749.703 -7152903.972 10 0 61026 78300.00000 0 21611098.001 -8942535.025 -10134049.650 10 0 61026 79200.00000 0 20384788.786 -8206703.397 -12917897.947 10 0 61026 80100.00000 0 18965211.685 -7172326.071 -15450295.140 10 0 61026 81000.00000 0 17413622.212 -5833765.660 -17682013.713 10 0 61026 81900.00000 0 15793181.070 -4198174.769 -19569711.220 10 0 61026 82800.00000 0 14166309.372 -2285455.844 -21076770.805 10 0 61026 83700.00000 0 12592097.601 -127683.484 -22174007.394 10 0 61026 84600.00000 0 11123877.186 2231986.809 -22840226.467 10 0 61026 85500.00000 0 9807056.205 4740877.976 -23062625.435 99